| time (UTC) | temp F | wind direction | speed knots | gust knots | rain 1hr in | rain 24hr in | rain mn in | humidity % | barometer mb |
| 20260508021048 | 47 | 281 | 0.0 | 0.0 | 0.00 | 0.00 | 0.00 | 86 | 1012.7 |
| 20260508020548 | 47 | 281 | 0.0 | 0.0 | 0.00 | 0.00 | 0.00 | 85 | 1012.8 |
| 20260508020053 | 47 | 281 | 0.0 | 0.0 | 0.00 | 0.00 | 0.00 | 85 | 1012.7 |
| 20260508015545 | 48 | 281 | 0.0 | 0.0 | 0.00 | 0.00 | 0.00 | 85 | 1012.6 |
| 20260508015044 | 48 | 281 | 0.0 | 0.0 | 0.00 | 0.00 | 0.00 | 84 | 1012.6 |
| 20260508014549 | 48 | 281 | 0.0 | 0.0 | 0.00 | 0.00 | 0.00 | 84 | 1012.6 |
| 20260508014043 | 49 | 281 | 0.0 | 0.0 | 0.00 | 0.00 | 0.00 | 84 | 1012.7 |
| 20260508013543 | 49 | 281 | 0.0 | 0.0 | 0.00 | 0.00 | 0.00 | 84 | 1012.6 |
| 20260508013041 | 49 | 281 | 0.0 | 0.0 | 0.00 | 0.00 | 0.00 | 84 | 1012.6 |
| 20260508012542 | 49 | 281 | 0.0 | 0.0 | 0.00 | 0.00 | 0.00 | 83 | 1012.6 |
| 20260508012039 | 49 | 281 | 0.0 | 0.0 | 0.00 | 0.00 | 0.00 | 83 | 1012.6 |
| 20260508011540 | 49 | 281 | 0.0 | 0.0 | 0.00 | 0.00 | 0.00 | 83 | 1012.6 |
| 20260508011038 | 50 | 281 | 0.0 | 0.9 | 0.00 | 0.00 | 0.00 | 82 | 1012.7 |
| 20260508010539 | 50 | 281 | 0.0 | 0.9 | 0.00 | 0.00 | 0.00 | 82 | 1012.7 |
| 20260508010049 | 50 | 280 | 0.0 | 0.0 | 0.00 | 0.00 | 0.00 | 82 | 1012.6 |
| 20260508005536 | 50 | 280 | 0.0 | 0.0 | 0.00 | 0.00 | 0.00 | 82 | 1012.6 |
| 20260508005036 | 50 | 280 | 0.0 | 0.0 | 0.00 | 0.00 | 0.00 | 81 | 1012.6 |
| 20260508004545 | 51 | 280 | 0.0 | 0.0 | 0.00 | 0.00 | 0.00 | 81 | 1012.6 |
| 20260508004035 | 51 | 280 | 0.0 | 1.7 | 0.00 | 0.00 | 0.00 | 81 | 1012.5 |
| 20260508003534 | 51 | 280 | 0.0 | 3.5 | 0.00 | 0.00 | 0.00 | 81 | 1012.6 |
| 20260508003034 | 51 | 279 | 0.0 | 4.3 | 0.00 | 0.00 | 0.00 | 81 | 1012.5 |
| 20260508002533 | 51 | 278 | 0.9 | 4.3 | 0.00 | 0.00 | 0.00 | 81 | 1012.6 |
| 20260508002033 | 51 | 271 | 0.0 | 2.6 | 0.00 | 0.00 | 0.00 | 81 | 1012.6 |
| 20260508001541 | 51 | 271 | 0.0 | 4.3 | 0.00 | 0.00 | 0.00 | 80 | 1012.7 |
| 20260508001032 | 51 | 127 | 0.0 | 4.3 | 0.00 | 0.00 | 0.00 | 80 | 1012.7 |
| 20260508000532 | 51 | 122 | 0.0 | 5.2 | 0.00 | 0.00 | 0.00 | 80 | 1012.6 |
| 20260508000031 | 51 | 120 | 0.0 | 6.1 | 0.00 | 0.00 | 0.00 | 80 | 1012.7 |
| 20260507235531 | 51 | 87 | 0.0 | 6.1 | 0.00 | 0.00 | 0.00 | 80 | 1012.7 |
| 20260507235029 | 51 | 149 | 0.0 | 2.6 | 0.00 | 0.00 | 0.00 | 80 | 1012.6 |
| 20260507234532 | 51 | 236 | 0.0 | 2.6 | 0.00 | 0.00 | 0.00 | 80 | 1012.5 |
| 20260507234027 | 51 | 292 | 0.0 | 2.6 | 0.00 | 0.00 | 0.00 | 80 | 1012.5 |
| 20260507233526 | 51 | 34 | 0.0 | 2.6 | 0.00 | 0.00 | 0.00 | 80 | 1012.5 |
| 20260507233026 | 51 | 82 | 0.0 | 2.6 | 0.00 | 0.00 | 0.00 | 79 | 1012.4 |
| 20260507232528 | 51 | 73 | 0.9 | 2.6 | 0.00 | 0.00 | 0.00 | 79 | 1012.3 |
| 20260507232024 | 51 | 61 | 0.0 | 1.7 | 0.00 | 0.00 | 0.00 | 79 | 1012.3 |
| 20260507231524 | 51 | 61 | 0.0 | 3.5 | 0.00 | 0.00 | 0.00 | 79 | 1012.2 |
| 20260507231024 | 51 | 61 | 0.0 | 3.5 | 0.00 | 0.00 | 0.00 | 79 | 1012.2 |
| 20260507230523 | 51 | 86 | 0.0 | 1.7 | 0.00 | 0.00 | 0.00 | 79 | 1012.3 |
| 20260507230023 | 51 | 86 | 0.0 | 2.6 | 0.00 | 0.00 | 0.00 | 79 | 1012.3 |
| 20260507225522 | 51 | 86 | 0.9 | 2.6 | 0.00 | 0.00 | 0.00 | 79 | 1012.2 |
| 20260507225024 | 51 | 44 | 0.0 | 1.7 | 0.00 | 0.00 | 0.00 | 79 | 1012.2 |
| 20260507224523 | 51 | 44 | 0.0 | 2.6 | 0.00 | 0.00 | 0.00 | 79 | 1012.1 |
| 20260507224021 | 51 | 20 | 0.0 | 2.6 | 0.00 | 0.00 | 0.00 | 79 | 1012.1 |
| 20260507223521 | 51 | 101 | 0.9 | 2.6 | 0.00 | 0.00 | 0.00 | 79 | 1012.2 |
| 20260507223021 | 51 | 102 | 0.0 | 5.2 | 0.00 | 0.00 | 0.00 | 78 | 1012.1 |
| 20260507222522 | 51 | 96 | 2.6 | 5.2 | 0.00 | 0.00 | 0.00 | 79 | 1012.1 |
| 20260507222023 | 51 | 93 | 0.0 | 3.5 | 0.00 | 0.00 | 0.00 | 79 | 1012.0 |
| 20260507221521 | 51 | 104 | 0.0 | 4.3 | 0.00 | 0.00 | 0.00 | 79 | 1012.0 |
| 20260507221025 | 51 | 309 | 0.9 | 5.2 | 0.00 | 0.00 | 0.00 | 79 | 1011.9 |
| 20260507220522 | 52 | 320 | 0.9 | 5.2 | 0.00 | 0.00 | 0.00 | 79 | 1011.8 |
| 20260507220021 | 52 | 39 | 0.0 | 5.2 | 0.00 | 0.00 | 0.00 | 79 | 1011.8 |
| 20260507215520 | 52 | 282 | 0.0 | 3.5 | 0.00 | 0.00 | 0.00 | 79 | 1011.7 |
| 20260507215020 | 52 | 271 | 0.9 | 3.5 | 0.00 | 0.00 | 0.00 | 78 | 1011.7 |
| 20260507214520 | 52 | 221 | 0.0 | 5.2 | 0.00 | 0.00 | 0.00 | 78 | 1011.6 |
| 20260507214019 | 52 | 255 | 0.9 | 5.2 | 0.00 | 0.00 | 0.00 | 79 | 1011.6 |
| 20260507213520 | 52 | 249 | 0.9 | 3.5 | 0.00 | 0.00 | 0.00 | 79 | 1011.6 |
| 20260507213027 | 52 | 262 | 0.0 | 1.7 | 0.00 | 0.00 | 0.00 | 79 | 1011.5 |
| 20260507212519 | 52 | 255 | 0.0 | 2.6 | 0.00 | 0.00 | 0.00 | 79 | 1011.5 |
| 20260507212021 | 52 | 279 | 0.0 | 4.3 | 0.00 | 0.00 | 0.00 | 79 | 1011.5 |
| 20260507211520 | 52 | 165 | 0.9 | 5.2 | 0.00 | 0.00 | 0.00 | 79 | 1011.5 |
| 20260507211022 | 52 | 325 | 0.0 | 5.2 | 0.00 | 0.00 | 0.00 | 79 | 1011.5 |
| 20260507210522 | 52 | 314 | 0.0 | 3.5 | 0.00 | 0.00 | 0.00 | 78 | 1011.3 |
| 20260507210019 | 52 | 307 | 0.0 | 5.2 | 0.00 | 0.00 | 0.00 | 78 | 1011.3 |
| 20260507205518 | 52 | 261 | 0.0 | 2.6 | 0.00 | 0.00 | 0.00 | 78 | 1011.3 |
| 20260507205018 | 52 | 147 | 0.0 | 5.2 | 0.00 | 0.00 | 0.00 | 78 | 1011.2 |
| 20260507204517 | 52 | 295 | 0.0 | 5.2 | 0.00 | 0.00 | 0.00 | 78 | 1011.3 |
| 20260507204017 | 52 | 207 | 1.7 | 4.3 | 0.00 | 0.00 | 0.00 | 78 | 1011.2 |
| 20260507203520 | 52 | 283 | 0.9 | 6.1 | 0.00 | 0.00 | 0.00 | 77 | 1011.1 |
| 20260507203036 | 52 | 281 | 0.9 | 6.1 | 0.00 | 0.00 | 0.00 | 77 | 1011.1 |
| 20260507202520 | 52 | 270 | 0.9 | 4.3 | 0.00 | 0.00 | 0.00 | 76 | 1011.1 |
| 20260507202016 | 52 | 320 | 0.9 | 4.3 | 0.00 | 0.00 | 0.00 | 76 | 1011.1 |
| 20260507201517 | 53 | 273 | 0.0 | 1.7 | 0.00 | 0.00 | 0.00 | 76 | 1011.0 |
| 20260507201017 | 53 | 333 | 0.0 | 2.6 | 0.00 | 0.00 | 0.00 | 75 | 1011.0 |
| 20260507200519 | 53 | 333 | 0.0 | 3.5 | 0.00 | 0.00 | 0.00 | 75 | 1011.0 |
| 20260507200017 | 53 | 293 | 0.0 | 4.3 | 0.00 | 0.00 | 0.00 | 75 | 1011.0 |
| 20260507195516 | 53 | 203 | 0.0 | 3.5 | 0.00 | 0.00 | 0.00 | 75 | 1011.0 |
| 20260507195016 | 54 | 217 | 0.0 | 2.6 | 0.00 | 0.00 | 0.00 | 75 | 1011.0 |
| 20260507194522 | 54 | 240 | 0.0 | 2.6 | 0.00 | 0.00 | 0.00 | 75 | 1011.0 |
| 20260507194017 | 54 | 295 | 0.0 | 2.6 | 0.00 | 0.00 | 0.00 | 74 | 1010.9 |
| 20260507193515 | 54 | 241 | 0.0 | 3.5 | 0.00 | 0.00 | 0.00 | 74 | 1010.9 |
| 20260507193018 | 54 | 228 | 0.0 | 4.3 | 0.00 | 0.00 | 0.00 | 74 | 1010.9 |
| 20260507192516 | 55 | 304 | 0.9 | 4.3 | 0.00 | 0.00 | 0.00 | 73 | 1010.8 |
| 20260507192015 | 55 | 232 | 0.0 | 2.6 | 0.00 | 0.00 | 0.00 | 73 | 1010.8 |
| 20260507191519 | 55 | 232 | 0.0 | 2.6 | 0.00 | 0.00 | 0.00 | 72 | 1010.8 |
| 20260507191017 | 55 | 297 | 0.0 | 2.6 | 0.00 | 0.00 | 0.00 | 72 | 1010.8 |
| 20260507190514 | 55 | 195 | 0.0 | 2.6 | 0.00 | 0.00 | 0.00 | 72 | 1010.8 |
| 20260507190015 | 55 | 186 | 0.0 | 1.7 | 0.00 | 0.00 | 0.00 | 72 | 1010.7 |
| 20260507185513 | 55 | 257 | 0.0 | 3.5 | 0.00 | 0.00 | 0.00 | 72 | 1010.6 |
| 20260507185013 | 56 | 181 | 0.9 | 3.5 | 0.00 | 0.00 | 0.00 | 71 | 1010.7 |
| 20260507184520 | 56 | 308 | 0.0 | 4.3 | 0.00 | 0.00 | 0.00 | 71 | 1010.5 |
| 20260507184013 | 56 | 316 | 0.0 | 4.3 | 0.00 | 0.00 | 0.00 | 70 | 1010.5 |
| 20260507183512 | 56 | 240 | 0.0 | 4.3 | 0.00 | 0.00 | 0.00 | 70 | 1010.5 |
| 20260507183014 | 56 | 293 | 0.0 | 4.3 | 0.00 | 0.00 | 0.00 | 69 | 1010.4 |
| 20260507182514 | 56 | 275 | 0.9 | 4.3 | 0.00 | 0.00 | 0.00 | 69 | 1010.4 |
| 20260507182013 | 56 | 269 | 0.0 | 5.2 | 0.00 | 0.00 | 0.00 | 68 | 1010.5 |
| 20260507181512 | 57 | 295 | 0.9 | 5.2 | 0.00 | 0.00 | 0.00 | 67 | 1010.4 |
| 20260507181018 | 57 | 306 | 0.0 | 2.6 | 0.00 | 0.00 | 0.00 | 67 | 1010.5 |
| 20260507180512 | 57 | 281 | 0.0 | 3.5 | 0.00 | 0.00 | 0.00 | 67 | 1010.4 |
| 20260507180017 | 57 | 281 | 0.0 | 3.5 | 0.00 | 0.00 | 0.00 | 67 | 1010.4 |
| 20260507175511 | 57 | 285 | 0.0 | 5.2 | 0.00 | 0.00 | 0.00 | 66 | 1010.4 |
| 20260507175014 | 57 | 300 | 1.7 | 5.2 | 0.00 | 0.00 | 0.00 | 66 | 1010.4 |
| 20260507174516 | 57 | 271 | 0.0 | 2.6 | 0.00 | 0.00 | 0.00 | 66 | 1010.4 |
| 20260507174015 | 57 | 287 | 0.0 | 3.5 | 0.00 | 0.00 | 0.00 | 66 | 1010.3 |
| 20260507173512 | 57 | 315 | 0.9 | 3.5 | 0.00 | 0.00 | 0.00 | 65 | 1010.4 |
| 20260507173018 | 57 | 236 | 0.0 | 3.5 | 0.00 | 0.00 | 0.00 | 65 | 1010.3 |
| 20260507172512 | 57 | 321 | 0.0 | 3.5 | 0.00 | 0.00 | 0.00 | 65 | 1010.3 |
| 20260507172009 | 57 | 139 | 0.0 | 2.6 | 0.00 | 0.00 | 0.00 | 64 | 1010.3 |
| 20260507171513 | 57 | 109 | 0.0 | 2.6 | 0.00 | 0.00 | 0.00 | 65 | 1010.3 |
| 20260507171009 | 57 | 141 | 0.0 | 2.6 | 0.00 | 0.00 | 0.00 | 66 | 1010.4 |
| 20260507170510 | 57 | 93 | 0.0 | 3.5 | 0.00 | 0.00 | 0.00 | 67 | 1010.4 |
| 20260507170009 | 57 | 272 | 0.9 | 3.5 | 0.00 | 0.00 | 0.00 | 70 | 1010.3 |
| 20260507165509 | 57 | 139 | 0.0 | 1.7 | 0.00 | 0.00 | 0.00 | 72 | 1010.4 |
| 20260507165009 | 57 | 160 | 0.0 | 1.7 | 0.00 | 0.00 | 0.00 | 74 | 1010.4 |
| 20260507164509 | 57 | 148 | 0.0 | 8.7 | 0.00 | 0.00 | 0.00 | 72 | 1010.4 |
| 20260507164008 | 57 | 151 | 0.9 | 7.0 | 0.00 | 0.00 | 0.00 | 72 | 1010.4 |
| 20260507163512 | 57 | 101 | 0.0 | 4.3 | 0.00 | 0.00 | 0.00 | 72 | 1010.4 |
| 20260507163007 | 58 | 186 | 0.9 | 4.3 | 0.00 | 0.00 | 0.00 | 72 | 1010.4 |
| 20260507162515 | 58 | 113 | 0.0 | 4.3 | 0.00 | 0.00 | 0.00 | 72 | 1010.4 |
| 20260507162008 | 58 | 137 | 0.0 | 5.2 | 0.00 | 0.00 | 0.00 | 72 | 1010.4 |
| 20260507161509 | 58 | 172 | 0.9 | 6.1 | 0.00 | 0.00 | 0.00 | 71 | 1010.4 |
| 20260507161007 | 58 | 141 | 1.7 | 5.2 | 0.00 | 0.00 | 0.00 | 70 | 1010.4 |
| 20260507160507 | 58 | 191 | 0.9 | 5.2 | 0.00 | 0.00 | 0.00 | 67 | 1010.3 |
| 20260507160009 | 58 | 142 | 1.7 | 6.1 | 0.00 | 0.00 | 0.00 | 63 | 1010.3 |
| 20260507155508 | 59 | 99 | 0.0 | 6.1 | 0.00 | 0.00 | 0.00 | 64 | 1010.4 |
| 20260507155009 | 59 | 93 | 1.7 | 5.2 | 0.00 | 0.00 | 0.00 | 63 | 1010.4 |
| 20260507154506 | 59 | 156 | 0.9 | 2.6 | 0.00 | 0.00 | 0.00 | 63 | 1010.3 |
| 20260507154009 | 59 | 88 | 0.9 | 2.6 | 0.00 | 0.00 | 0.00 | 61 | 1010.3 |
| 20260507153505 | 59 | 282 | 0.0 | 1.7 | 0.00 | 0.00 | 0.00 | 61 | 1010.4 |
| 20260507153006 | 59 | 130 | 0.0 | 2.6 | 0.00 | 0.00 | 0.00 | 61 | 1010.4 |
| 20260507152504 | 59 | 225 | 0.0 | 2.6 | 0.00 | 0.00 | 0.00 | 61 | 1010.5 |
| 20260507152008 | 59 | 155 | 0.0 | 4.3 | 0.00 | 0.00 | 0.00 | 60 | 1010.4 |
| 20260507151504 | 60 | 186 | 0.9 | 4.3 | 0.00 | 0.00 | 0.00 | 59 | 1010.4 |
| 20260507151005 | 60 | 169 | 0.9 | 2.6 | 0.00 | 0.00 | 0.00 | 58 | 1010.4 |
| 20260507150505 | 60 | 268 | 0.0 | 2.6 | 0.00 | 0.00 | 0.00 | 58 | 1010.5 |
| 20260507150004 | 60 | 3 | 0.9 | 2.6 | 0.00 | 0.00 | 0.00 | 59 | 1010.5 |
| 20260507145503 | 59 | 173 | 0.0 | 2.6 | 0.00 | 0.00 | 0.00 | 59 | 1010.5 |
| 20260507145005 | 59 | 269 | 0.0 | 2.6 | 0.00 | 0.00 | 0.00 | 60 | 1010.5 |
| 20260507144502 | 59 | 275 | 0.0 | 4.3 | 0.00 | 0.00 | 0.00 | 62 | 1010.5 |
| 20260507144002 | 59 | 270 | 0.0 | 4.3 | 0.00 | 0.00 | 0.00 | 61 | 1010.6 |
| 20260507143503 | 59 | 113 | 0.0 | 6.1 | 0.00 | 0.00 | 0.00 | 60 | 1010.6 |
| 20260507143001 | 59 | 167 | 0.9 | 6.1 | 0.00 | 0.00 | 0.00 | 58 | 1010.6 |
| 20260507142501 | 60 | 109 | 1.7 | 3.5 | 0.00 | 0.00 | 0.00 | 60 | 1010.6 |
| 20260507142000 | 60 | 176 | 0.0 | 5.2 | 0.00 | 0.00 | 0.00 | 62 | 1010.7 |
| 20260507141612 | 60 | 227 | 0.9 | 5.2 | 0.00 | 0.00 | 0.00 | 61 | 1010.7 |
| 20260507141100 | 59 | 165 | 0.0 | 2.6 | 0.00 | 0.00 | 0.00 | 61 | 1010.7 |
| 20260507140559 | 59 | 231 | 0.0 | 2.6 | 0.00 | 0.00 | 0.00 | 61 | 1010.7 |
| 20260507140106 | 59 | 308 | 0.9 | 2.6 | 0.00 | 0.00 | 0.00 | 62 | 1010.7 |
| 20260507135604 | 59 | 238 | 0.9 | 2.6 | 0.00 | 0.00 | 0.00 | 62 | 1010.8 |
| 20260507135101 | 58 | 181 | 0.9 | 3.5 | 0.00 | 0.00 | 0.00 | 60 | 1010.7 |
| 20260507134559 | 59 | 273 | 0.0 | 3.5 | 0.00 | 0.00 | 0.00 | 61 | 1010.8 |
| 20260507134059 | 59 | 176 | 0.0 | 2.6 | 0.00 | 0.00 | 0.00 | 59 | 1010.8 |
| 20260507133559 | 59 | 203 | 0.0 | 2.6 | 0.00 | 0.00 | 0.00 | 59 | 1010.8 |
| 20260507133147 | 59 | 290 | 0.0 | 4.3 | 0.00 | 0.00 | 0.00 | 58 | 1010.8 |
| 20260507132557 | 60 | 238 | 0.9 | 5.2 | 0.00 | 0.00 | 0.00 | 57 | 1010.8 |
| 20260507132058 | 60 | 323 | 1.7 | 5.2 | 0.00 | 0.00 | 0.00 | 57 | 1010.7 |
| 20260507131559 | 60 | 188 | 0.9 | 3.5 | 0.00 | 0.00 | 0.00 | 57 | 1010.8 |
| 20260507131058 | 60 | 200 | 0.9 | 7.8 | 0.00 | 0.00 | 0.00 | 56 | 1010.7 |
| 20260507130559 | 61 | 311 | 0.9 | 3.5 | 0.00 | 0.00 | 0.00 | 55 | 1010.7 |
| 20260507130105 | 61 | 155 | 0.9 | 4.3 | 0.00 | 0.00 | 0.00 | 54 | 1010.8 |
| 20260507125557 | 61 | 217 | 1.7 | 4.3 | 0.00 | 0.00 | 0.00 | 54 | 1010.9 |
| 20260507125059 | 61 | 293 | 0.9 | 4.3 | 0.00 | 0.00 | 0.00 | 55 | 1010.8 |
| 20260507124605 | 61 | 278 | 0.9 | 4.3 | 0.00 | 0.00 | 0.00 | 54 | 1010.9 |
| 20260507124053 | 60 | 276 | 0.0 | 4.3 | 0.00 | 0.00 | 0.00 | 54 | 1010.8 |
| 20260507123552 | 60 | 140 | 0.9 | 4.3 | 0.00 | 0.00 | 0.00 | 57 | 1010.9 |
| 20260507123052 | 60 | 125 | 0.0 | 5.2 | 0.00 | 0.00 | 0.00 | 57 | 1010.9 |
| 20260507122549 | 60 | 329 | 0.9 | 5.2 | 0.00 | 0.00 | 0.00 | 57 | 1011.0 |
| 20260507122049 | 59 | 49 | 0.9 | 4.3 | 0.00 | 0.00 | 0.00 | 58 | 1011.0 |
| 20260507121548 | 59 | 240 | 0.0 | 4.3 | 0.00 | 0.00 | 0.00 | 58 | 1011.0 |
| 20260507121048 | 59 | 292 | 0.9 | 3.5 | 0.00 | 0.00 | 0.00 | 59 | 1011.0 |
| 20260507120547 | 58 | 316 | 0.9 | 3.5 | 0.00 | 0.00 | 0.00 | 58 | 1011.1 |
| 20260507120046 | 58 | 185 | 0.9 | 3.5 | 0.00 | 0.00 | 0.00 | 58 | 1011.1 |
| 20260507115546 | 58 | 268 | 0.0 | 3.5 | 0.00 | 0.00 | 0.00 | 58 | 1011.1 |
| 20260507115047 | 58 | 112 | 0.0 | 3.5 | 0.00 | 0.00 | 0.00 | 57 | 1011.2 |
| 20260507114559 | 58 | 334 | 0.0 | 3.5 | 0.00 | 0.00 | 0.00 | 58 | 1011.2 |
| 20260507114044 | 58 | 213 | 0.0 | 3.5 | 0.00 | 0.00 | 0.00 | 58 | 1011.2 |
| 20260507113543 | 58 | 126 | 0.0 | 4.3 | 0.00 | 0.00 | 0.00 | 58 | 1011.2 |
| 20260507113042 | 58 | 151 | 0.9 | 6.1 | 0.00 | 0.00 | 0.00 | 59 | 1011.3 |
| 20260507112541 | 57 | 90 | 2.6 | 6.1 | 0.00 | 0.00 | 0.00 | 60 | 1011.4 |
| 20260507112043 | 57 | 182 | 0.0 | 2.6 | 0.00 | 0.00 | 0.00 | 60 | 1011.3 |
| 20260507111541 | 57 | 131 | 0.9 | 2.6 | 0.00 | 0.00 | 0.00 | 59 | 1011.4 |
| 20260507111041 | 57 | 155 | 0.9 | 2.6 | 0.00 | 0.00 | 0.00 | 58 | 1011.4 |
| 20260507110544 | 57 | 348 | 0.0 | 1.7 | 0.00 | 0.00 | 0.00 | 61 | 1011.3 |
| 20260507110044 | 56 | 345 | 0.0 | 1.7 | 0.00 | 0.00 | 0.00 | 61 | 1011.3 |
| 20260507105540 | 55 | 1 | 0.0 | 1.7 | 0.00 | 0.00 | 0.00 | 63 | 1011.4 |
| 20260507105039 | 55 | 1 | 0.0 | 0.9 | 0.00 | 0.00 | 0.00 | 63 | 1011.4 |
| 20260507104539 | 55 | 1 | 0.0 | 0.9 | 0.00 | 0.00 | 0.00 | 63 | 1011.5 |
| 20260507104037 | 55 | 1 | 0.0 | 2.6 | 0.00 | 0.00 | 0.00 | 63 | 1011.5 |
| 20260507103537 | 55 | 1 | 0.0 | 2.6 | 0.00 | 0.00 | 0.00 | 62 | 1011.6 |
| 20260507103043 | 55 | 15 | 0.0 | 2.6 | 0.00 | 0.00 | 0.00 | 63 | 1011.6 |
| 20260507102536 | 55 | 288 | 0.0 | 1.7 | 0.00 | 0.00 | 0.00 | 64 | 1011.6 |
| 20260507102036 | 55 | 288 | 0.0 | 1.7 | 0.00 | 0.00 | 0.00 | 63 | 1011.7 |
| 20260507101539 | 55 | 285 | 0.0 | 0.0 | 0.00 | 0.00 | 0.00 | 62 | 1011.7 |
| 20260507101036 | 55 | 285 | 0.0 | 0.9 | 0.00 | 0.00 | 0.00 | 63 | 1011.7 |
| 20260507100536 | 55 | 285 | 0.0 | 0.9 | 0.00 | 0.00 | 0.00 | 63 | 1011.6 |
| 20260507100037 | 55 | 285 | 0.0 | 0.9 | 0.00 | 0.00 | 0.00 | 61 | 1011.7 |
| 20260507095536 | 55 | 285 | 0.0 | 0.9 | 0.00 | 0.00 | 0.00 | 62 | 1011.7 |
| 20260507095035 | 55 | 284 | 0.0 | 1.7 | 0.00 | 0.00 | 0.00 | 62 | 1011.6 |
| 20260507094544 | 55 | 283 | 0.0 | 1.7 | 0.00 | 0.00 | 0.00 | 63 | 1011.7 |
| 20260507094034 | 54 | 277 | 0.0 | 1.7 | 0.00 | 0.00 | 0.00 | 61 | 1011.7 |
| 20260507093533 | 55 | 277 | 0.0 | 2.6 | 0.00 | 0.00 | 0.00 | 63 | 1011.7 |
| 20260507093033 | 55 | 275 | 0.0 | 2.6 | 0.00 | 0.00 | 0.00 | 63 | 1011.7 |
| 20260507092533 | 54 | 274 | 0.0 | 2.6 | 0.00 | 0.00 | 0.00 | 61 | 1011.7 |
| 20260507092032 | 54 | 272 | 0.0 | 1.7 | 0.00 | 0.00 | 0.00 | 64 | 1011.8 |
| 20260507091534 | 54 | 272 | 0.0 | 1.7 | 0.00 | 0.00 | 0.00 | 63 | 1011.8 |
| 20260507091035 | 55 | 272 | 0.9 | 3.5 | 0.00 | 0.00 | 0.00 | 63 | 1011.8 |
| 20260507090532 | 55 | 272 | 0.9 | 4.3 | 0.00 | 0.00 | 0.00 | 62 | 1011.8 |
| 20260507090031 | 56 | 255 | 1.7 | 4.3 | 0.00 | 0.00 | 0.00 | 62 | 1011.8 |
| 20260507085534 | 57 | 271 | 0.0 | 3.5 | 0.00 | 0.00 | 0.00 | 60 | 1011.8 |
| 20260507085031 | 57 | 281 | 0.0 | 3.5 | 0.00 | 0.00 | 0.00 | 60 | 1011.8 |
| 20260507084533 | 57 | 359 | 0.9 | 3.5 | 0.00 | 0.00 | 0.00 | 58 | 1011.9 |
| 20260507084030 | 57 | 315 | 0.9 | 2.6 | 0.00 | 0.00 | 0.00 | 59 | 1011.9 |
| 20260507083529 | 57 | 30 | 0.0 | 1.7 | 0.00 | 0.00 | 0.00 | 59 | 1012.0 |
| 20260507083026 | 56 | 34 | 0.0 | 2.6 | 0.00 | 0.00 | 0.00 | 62 | 1012.0 |
| 20260507082525 | 55 | 336 | 0.0 | 3.5 | 0.00 | 0.00 | 0.00 | 61 | 1012.0 |
| 20260507082025 | 55 | 336 | 0.0 | 3.5 | 0.00 | 0.00 | 0.00 | 62 | 1012.1 |
| 20260507081525 | 55 | 98 | 0.0 | 2.6 | 0.00 | 0.00 | 0.00 | 64 | 1012.1 |
| 20260507081023 | 54 | 94 | 0.9 | 2.6 | 0.00 | 0.00 | 0.00 | 59 | 1012.2 |
| 20260507080522 | 54 | 15 | 0.9 | 1.7 | 0.00 | 0.00 | 0.00 | 61 | 1012.1 |
| 20260507080020 | 54 | 110 | 0.0 | 2.6 | 0.00 | 0.00 | 0.00 | 62 | 1012.0 |
| 20260507075519 | 53 | 110 | 0.9 | 2.6 | 0.00 | 0.00 | 0.00 | 62 | 1012.1 |
| 20260507075018 | 52 | 110 | 0.0 | 0.9 | 0.00 | 0.00 | 0.00 | 64 | 1012.0 |
| 20260507074518 | 52 | 110 | 0.0 | 0.0 | 0.00 | 0.00 | 0.00 | 66 | 1012.0 |
| 20260507074013 | 52 | 110 | 0.0 | 0.0 | 0.00 | 0.00 | 0.00 | 66 | 1012.0 |
| 20260507073513 | 52 | 110 | 0.0 | 0.0 | 0.00 | 0.00 | 0.00 | 68 | 1012.0 |
| 20260507073012 | 51 | 110 | 0.0 | 0.0 | 0.00 | 0.00 | 0.00 | 68 | 1012.0 |
| 20260507072513 | 51 | 110 | 0.0 | 1.7 | 0.00 | 0.00 | 0.00 | 69 | 1012.0 |
| 20260507072010 | 51 | 110 | 0.0 | 1.7 | 0.00 | 0.00 | 0.00 | 69 | 1011.9 |
| 20260507071513 | 51 | 110 | 0.0 | 0.9 | 0.00 | 0.00 | 0.00 | 72 | 1011.9 |
| 20260507071009 | 51 | 110 | 0.0 | 0.0 | 0.00 | 0.00 | 0.00 | 73 | 1011.9 |
| 20260507070507 | 51 | 110 | 0.0 | 0.0 | 0.00 | 0.00 | 0.00 | 74 | 1011.9 |
| 20260507070012 | 50 | 110 | 0.0 | 0.0 | 0.00 | 0.00 | 0.00 | 73 | 1011.9 |
| 20260507065505 | 50 | 110 | 0.0 | 0.9 | 0.00 | 0.00 | 0.00 | 74 | 1011.9 |
| 20260507065003 | 50 | 110 | 0.0 | 0.9 | 0.00 | 0.00 | 0.00 | 74 | 1011.9 |
| 20260507064503 | 50 | 110 | 0.0 | 0.0 | 0.00 | 0.00 | 0.00 | 75 | 1011.9 |
| 20260507064003 | 50 | 110 | 0.0 | 0.9 | 0.00 | 0.00 | 0.00 | 75 | 1011.9 |
| 20260507063503 | 49 | 110 | 0.0 | 0.9 | 0.00 | 0.00 | 0.00 | 74 | 1011.9 |
| 20260507063102 | 49 | 110 | 0.0 | 1.7 | 0.00 | 0.00 | 0.00 | 75 | 1011.9 |
| 20260507062559 | 49 | 110 | 0.0 | 1.7 | 0.00 | 0.00 | 0.00 | 74 | 1011.9 |
| 20260507062059 | 49 | 110 | 0.0 | 0.9 | 0.00 | 0.00 | 0.00 | 75 | 1011.8 |
| 20260507061558 | 49 | 110 | 0.0 | 0.0 | 0.00 | 0.00 | 0.00 | 75 | 1011.8 |
| 20260507061057 | 48 | 110 | 0.0 | 0.9 | 0.00 | 0.00 | 0.00 | 75 | 1011.9 |
| 20260507060555 | 48 | 110 | 0.0 | 1.7 | 0.00 | 0.00 | 0.00 | 77 | 1011.9 |
| 20260507060058 | 48 | 110 | 0.0 | 2.6 | 0.00 | 0.00 | 0.00 | 78 | 1011.9 |
| 20260507055556 | 48 | 110 | 0.0 | 1.7 | 0.00 | 0.00 | 0.00 | 78 | 1011.9 |
| 20260507055057 | 48 | 110 | 0.0 | 0.9 | 0.00 | 0.00 | 0.00 | 78 | 1011.8 |
| 20260507054553 | 48 | 110 | 0.0 | 0.9 | 0.00 | 0.00 | 0.00 | 79 | 1011.8 |
| 20260507054052 | 48 | 110 | 0.0 | 0.9 | 0.00 | 0.00 | 0.00 | 79 | 1011.8 |
| 20260507053551 | 48 | 110 | 0.0 | 0.0 | 0.00 | 0.00 | 0.00 | 78 | 1011.7 |
| 20260507053053 | 48 | 110 | 0.0 | 0.9 | 0.00 | 0.00 | 0.00 | 79 | 1011.7 |
| 20260507052549 | 48 | 110 | 0.0 | 0.9 | 0.00 | 0.00 | 0.00 | 79 | 1011.6 |
| 20260507052050 | 48 | 110 | 0.0 | 0.9 | 0.00 | 0.00 | 0.00 | 80 | 1011.7 |
| 20260507051549 | 48 | 110 | 0.0 | 0.9 | 0.00 | 0.00 | 0.00 | 80 | 1011.7 |
| 20260507051048 | 48 | 110 | 0.0 | 3.5 | 0.00 | 0.00 | 0.00 | 80 | 1011.7 |
| 20260507050547 | 48 | 110 | 0.0 | 3.5 | 0.00 | 0.00 | 0.00 | 79 | 1011.5 |
| 20260507050048 | 48 | 118 | 0.0 | 1.7 | 0.00 | 0.00 | 0.00 | 79 | 1011.5 |
| 20260507045547 | 48 | 119 | 0.0 | 2.6 | 0.00 | 0.00 | 0.00 | 79 | 1011.6 |
| 20260507045047 | 48 | 119 | 0.9 | 2.6 | 0.00 | 0.00 | 0.00 | 79 | 1011.5 |
| 20260507044558 | 48 | 120 | 0.0 | 2.6 | 0.00 | 0.00 | 0.00 | 79 | 1011.5 |
| 20260507044045 | 48 | 120 | 0.9 | 2.6 | 0.00 | 0.00 | 0.00 | 79 | 1011.5 |
| 20260507043544 | 48 | 77 | 0.0 | 1.7 | 0.00 | 0.00 | 0.00 | 80 | 1011.6 |
| 20260507043045 | 48 | 56 | 0.0 | 1.7 | 0.00 | 0.00 | 0.00 | 81 | 1011.6 |
| 20260507042542 | 48 | 56 | 0.0 | 0.0 | 0.00 | 0.00 | 0.00 | 82 | 1011.7 |
| 20260507042041 | 48 | 56 | 0.0 | 1.7 | 0.00 | 0.00 | 0.00 | 83 | 1011.6 |
| 20260507041546 | 48 | 55 | 0.0 | 1.7 | 0.00 | 0.00 | 0.00 | 83 | 1011.7 |
| 20260507041041 | 48 | 55 | 0.0 | 0.0 | 0.00 | 0.00 | 0.00 | 83 | 1011.7 |
| 20260507040541 | 48 | 56 | 0.0 | 0.9 | 0.00 | 0.00 | 0.00 | 83 | 1011.8 |
| 20260507040044 | 48 | 56 | 0.0 | 0.9 | 0.00 | 0.00 | 0.00 | 83 | 1011.7 |
| 20260507035539 | 48 | 56 | 0.0 | 0.0 | 0.00 | 0.00 | 0.00 | 83 | 1011.8 |
| 20260507035039 | 48 | 56 | 0.0 | 0.0 | 0.00 | 0.00 | 0.00 | 83 | 1011.7 |
| 20260507034543 | 48 | 56 | 0.0 | 1.7 | 0.00 | 0.00 | 0.00 | 83 | 1011.7 |
| 20260507034038 | 48 | 55 | 0.0 | 1.7 | 0.00 | 0.00 | 0.00 | 82 | 1011.6 |
| 20260507033537 | 48 | 55 | 0.0 | 0.0 | 0.00 | 0.00 | 0.00 | 82 | 1011.7 |
| 20260507033048 | 48 | 55 | 0.0 | 0.0 | 0.00 | 0.00 | 0.00 | 82 | 1011.7 |
| 20260507032536 | 48 | 56 | 0.0 | 0.0 | 0.00 | 0.00 | 0.00 | 82 | 1011.8 |
| 20260507032040 | 48 | 55 | 0.0 | 0.0 | 0.00 | 0.00 | 0.00 | 82 | 1011.8 |
| 20260507031551 | 48 | 56 | 0.0 | 0.0 | 0.00 | 0.00 | 0.00 | 82 | 1011.8 |
| 20260507031039 | 49 | 55 | 0.0 | 0.0 | 0.00 | 0.00 | 0.00 | 82 | 1011.9 |
| 20260507030534 | 49 | 55 | 0.0 | 0.0 | 0.00 | 0.00 | 0.00 | 82 | 1011.9 |
| 20260507030042 | 49 | 55 | 0.0 | 0.0 | 0.00 | 0.00 | 0.00 | 82 | 1011.9 |
| 20260507025534 | 49 | 55 | 0.0 | 0.0 | 0.00 | 0.00 | 0.00 | 82 | 1011.8 |
| 20260507025036 | 49 | 55 | 0.0 | 0.0 | 0.00 | 0.00 | 0.00 | 81 | 1011.8 |
| 20260507024541 | 49 | 56 | 0.0 | 0.0 | 0.00 | 0.00 | 0.00 | 81 | 1011.9 |
| 20260507024033 | 49 | 56 | 0.0 | 0.0 | 0.00 | 0.00 | 0.00 | 81 | 1012.0 |
| 20260507023532 | 49 | 56 | 0.0 | 0.9 | 0.00 | 0.00 | 0.00 | 81 | 1011.9 |
| 20260507023032 | 49 | 56 | 0.0 | 0.9 | 0.00 | 0.00 | 0.00 | 81 | 1012.0 |
| 20260507022532 | 49 | 56 | 0.0 | 0.9 | 0.00 | 0.00 | 0.00 | 81 | 1012.0 |
| 20260507022034 | 49 | 56 | 0.0 | 0.0 | 0.00 | 0.00 | 0.00 | 81 | 1012.0 |
| 20260507021536 | 49 | 56 | 0.0 | 0.0 | 0.00 | 0.00 | 0.00 | 81 | 1012.0 |